Probability
0 0 0 0 0 0 0 0 0 0 0 0 0 0 0 0 0 0 0 0 0 0 0 0 0 0 0 0 0 0 0 0 0 0 0 0 0 0
0 0 0 0 0 0 0 0 0 0 0 0 0 0 0 0 0 0 0 0 0 0 0 0 0 0 0 0 0 0 0 0 0 0 0 0 0 0
0 0 0 0 0 0 0 0 0 0 0 0 0 0 0 0 0 0 0 0 0 0 0 0 0 0 0 0 0 0 0 0 0 0 0 0 0 0
0 0 0 0 0 0 0 0 0 0 0 0 0 0 0 0 0 0 0 0 0 0 0 0 0 0 0 0 0 0 0 0 0 0 0 0 0 0
0 0 0 0 0 0 0 0 0 0 0 0 0 0 0 0 0 0 0 0 0 0 0 0 0 0 0 0 0 0 0 0 0 0 0 0 0 0
0 0 0 0 0 0 0 1 0 0 0 0 0 0 0 0 0 0 0 0 0 0 0 0 0 0 0 0 0 0 0 0 0 0 0 0 0 0
0 0 0 0 0 0 0 0 0 0 0 0 0 0 0 0 0 0 0 0 0 0 0 0 0 0 0 0 0 0 0 0 0 0 0 0 0 0
0 0 0 0 0 0 0 0 0 0 0 0 0 0 0 0 0 0 0 0 0 0 0 0 1 1 0 0 0 0 0 0 0 0 0 0 0 0
0 0 0 0 0 0 0 0 0 0 0 0 0 0 0 0 0 0 0 0 0 0 0 0 1 1 0 0 0 0 0 0 0 0 0 0 0 0
0 0 0 0 0 0 0 0 0 0 0 0 0 0 0 0 0 0 0 0 0 0 0 0 1 1 0 0 0 0 0 0 0 0 0 0 0 0
0 0 0 0 0 0 0 0 0 0 0 0 0 0 0 0 0 0 1 1 1 0 0 0 0 0 0 0 0 0 0 0 0 0 0 0 0 0
0 0 0 0 0 0 0 0 0 0 0 0 0 0 0 0 0 0 1 2 2 1 0 0 0 0 0 0 0 0 0 0 0 0 0 0 0 0
0 0 0 0 0 0 0 0 0 0 0 0 0 0 0 0 0 0 0 1 2 1 0 0 0 0 0 0 0 0 0 0 0 0 0 0 0 0
0 0 0 0 0 0 0 0 0 0 0 0 0 0 0 0 0 0 0 0 1 1 0 0 0 0 0 0 0 0 0 0 0 0 0 0 0 0
0 0 0 0 0 0 0 0 0 0 0 0 0 0 0 0 0 0 0 0 0 0 0 0 0 0 0 0 0 0 0 0 0 0 0 0 0 0
0 0 0 0 0 0 0 0 0 0 0 0 0 0 0 0 0 0 0 0 0 0 0 0 0 0 0 0 0 0 0 0 0 0 0 0 0 0
0 0 0 0 0 0 0 0 0 0 0 0 0 0 0 0 0 0 0 0 0 0 0 0 0 0 0 0 0 0 0 0 0 0 0 0 0 0
0 0 0 0 0 0 0 0 0 0 0 0 0 0 0 0 0 0 0 0 0 0 0 0 0 0 0 0 0 0 0 0 0 0 0 0 0 0
0 0 0 0 0 0 0 0 0 0 0 0 0 0 0 0 0 0 0 0 0 0 0 0 0 0 0 0 0 0 0 0 0 0 0 0 0 0
0 0 0 0 0 0 0 0 0 0 0 0 0 0 0 0 0 0 0 0 0 0 0 0 0 0 0 0 0 0 0 0 0 0 0 0 0 0
0 0 0 0 0 0 0 0 0 0 0 0 0 0 0 0 0 0 0 0 0 0 0 0 0 0 0 0 0 0 0 0 0 0 0 0 0 0
0 0 0 0 0 0 0 0 0 0 0 0 0 0 0 0 0 0 0 0 0 0 0 0 0 0 0 0 0 0 0 0 0 0 0 0 0 0
0 0 0 0 0 0 0 0 0 0 0 0 0 0 0 0 0 0 0 0 0 0 0 0 0 0 0 0 0 0 0 0 0 0 0 0 0 0
Wind_Speed
1 1 1 1 1 1 1 2 2 1 0 0 1 1 2 3 4 3 3 5 6 6 6 6 5 6 6 6 6 5 5 5 5 5 5 5 5 5
1 1 1 1 1 1 1 1 2 3 1 0 1 1 2 3 5 3 4 7 6 6 6 6 6 5 5 6 5 5 5 5 5 5 5 5 5 4
0 1 1 2 2 1 1 1 1 2 2 0 1 1 3 3 3 2 3 3 3 5 5 5 5 5 5 4 4 5 5 5 4 4 4 3 3 3
1 1 2 2 2 1 1 1 1 2 3 1 0 1 2 2 3 2 2 3 3 6 6 5 5 4 4 4 4 4 5 5 4 3 3 2 2 2
0 1 1 2 2 1 1 1 1 2 2 2 1 1 1 1 2 1 1 1 2 4 6 5 5 5 4 3 3 3 3 4 3 3 2 2 2 2
1 1 1 2 1 1 1 1 1 2 2 2 1 1 1 0 1 1 0 0 0 2 3 4 4 5 4 4 3 3 3 3 3 2 2 2 1 1
1 1 2 3 3 2 1 2 2 2 2 2 2 1 1 1 1 1 1 1 0 1 1 2 2 2 2 3 3 3 3 3 2 2 2 1 1 1
0 1 1 2 3 3 3 3 3 3 2 2 2 2 2 2 2 2 2 1 1 1 1 1 2 2 2 2 4 5 4 3 3 2 2 1 1 0
1 1 1 2 2 1 1 2 1 1 3 3 3 3 2 2 2 2 2 2 2 2 2 1 1 2 2 3 7 7 6 5 4 3 2 1 1 1
1 1 1 2 2 2 1 1 1 1 2 3 3 2 2 2 3 3 3 2 0 0 2 1 1 1 2 2 6 7 7 6 5 4 3 2 1 1
1 1 2 2 2 3 2 1 1 1 2 2 3 3 2 1 2 2 1 1 1 1 1 1 1 1 1 1 3 7 7 6 5 4 3 2 2 1
0 0 2 2 2 3 2 2 2 2 1 1 1 1 2 2 2 3 3 3 2 1 1 1 1 1 1 1 1 2 2 3 4 5 4 3 2 1
1 1 0 2 2 2 1 2 3 2 2 2 1 1 1 1 1 1 2 3 2 2 2 2 1 1 1 1 1 1 2 2 2 3 4 4 4 3
1 1 1 2 2 1 1 2 2 1 1 1 1 1 1 1 1 1 1 2 2 3 2 3 2 2 1 1 1 1 1 2 2 2 2 3 4 5
1 2 2 3 2 2 2 3 1 1 1 1 2 2 2 2 2 1 1 0 1 1 1 2 2 1 2 2 2 1 1 2 2 2 2 2 3 3
0 1 2 3 2 2 2 1 2 2 2 2 2 2 1 1 1 1 1 1 0 1 1 1 2 2 2 2 2 2 1 2 1 2 2 2 2 3
1 0 0 1 1 1 1 2 2 2 2 2 2 1 1 2 1 1 1 1 1 1 1 1 0 1 2 2 2 2 2 2 2 2 2 2 3 3
2 1 2 2 3 3 3 2 2 2 2 2 2 3 3 3 2 2 2 2 2 2 2 1 0 1 1 2 3 3 2 2 2 2 2 2 4 3
2 3 3 3 3 3 3 3 3 2 2 2 2 3 3 3 3 3 3 2 2 2 2 2 2 2 2 3 4 3 3 3 2 2 2 3 4 4
3 3 3 3 3 2 3 2 2 2 2 2 2 2 2 2 2 3 3 3 3 2 2 2 3 3 4 4 3 3 5 4 3 3 3 3 3 4
3 3 3 2 2 2 2 2 2 2 2 2 2 2 2 2 2 2 3 3 3 2 3 3 3 4 2 1 2 3 3 5 4 3 3 2 3 3
3 3 3 2 2 2 2 2 2 2 2 2 2 2 2 2 2 2 2 2 2 3 3 2 2 1 2 2 4 4 3 3 4 5 5 4 3 4
3 3 3 3 2 2 2 2 2 2 2 2 2 2 2 2 2 2 2 2 2 2 2 2 1 1 2 3 3 3 4 3 2 2 4 6 8 9
Wind_Direction
84 91 93 95 75 71 103 136 140 130 31 150 90 111 118 114 138 133 125 120 113 103 92 85 79 74 77 75 76 84 94 98 94 88 84 84 83 83
92 96 85 78 82 78 91 81 103 132 139 151 129 123 126 134 140 138 126 129 128 118 108 98 92 87 83 77 73 78 88 96 98 95 88 83 78 74
264 146 126 105 91 81 93 76 79 106 121 29 81 89 102 107 111 131 138 138 134 138 131 122 113 102 94 87 80 81 86 87 87 85 83 82 79 74
232 131 126 115 104 81 90 111 115 121 128 131 58 85 101 127 131 137 141 143 140 150 153 147 136 120 107 98 90 89 88 85 83 86 87 79 72 66
91 98 118 120 133 135 132 120 127 125 124 134 147 121 107 124 109 106 107 118 155 150 162 161 156 145 132 122 110 101 95 91 86 86 91 80 66 57
57 81 91 106 137 158 151 145 127 124 128 132 149 155 154 178 121 129 60 10 180 151 150 159 169 167 158 150 141 131 120 109 103 97 99 97 79 46
54 77 97 105 113 120 130 139 131 136 138 143 164 156 169 144 178 187 177 184 310 150 135 165 162 164 168 172 172 158 143 133 125 119 122 121 108 77
228 212 164 122 104 103 110 115 134 159 171 164 177 182 202 193 189 186 173 152 265 269 139 201 158 164 171 159 164 164 166 162 157 151 141 125 113 102
231 204 186 131 127 130 133 138 131 158 174 171 182 205 203 198 174 177 180 178 209 213 140 230 186 178 183 164 166 172 175 178 178 172 161 156 180 231
190 197 180 185 171 153 169 155 175 209 206 190 188 205 203 196 179 186 189 188 244 87 125 189 234 210 189 179 178 179 182 184 184 181 181 187 211 240
194 180 162 171 161 149 164 183 198 243 213 172 178 193 185 179 166 136 151 147 218 255 183 164 232 233 225 205 193 182 181 184 187 190 193 199 218 243
186 141 148 153 156 153 172 178 191 223 196 175 214 228 205 191 180 166 168 171 184 230 227 159 210 128 296 255 170 169 181 199 201 204 211 218 232 224
207 189 138 117 139 158 171 183 201 205 201 183 186 195 175 157 164 175 170 164 177 216 204 152 176 160 187 251 233 189 167 177 199 222 225 232 236 211
221 201 189 165 165 194 202 206 214 190 170 164 160 167 164 171 184 177 180 179 185 196 188 153 163 176 179 229 256 245 206 195 187 198 208 232 241 240
219 183 187 193 189 206 203 203 201 181 170 177 203 209 196 183 165 159 169 168 276 247 176 157 162 180 178 198 223 228 241 241 197 190 203 211 218 223
299 178 179 190 204 207 202 207 209 205 188 196 203 202 174 154 162 160 156 159 191 295 290 198 171 173 197 217 207 232 223 232 236 216 205 224 232 219
164 98 181 186 194 207 208 213 209 208 211 204 190 191 187 180 188 175 160 156 189 219 249 281 264 160 183 189 218 235 234 243 238 225 224 250 247 230
155 185 213 215 210 209 211 210 207 205 209 204 199 197 194 196 198 192 185 191 209 219 216 212 189 353 342 291 220 216 221 235 246 232 216 235 259 254
182 212 219 222 222 215 210 206 210 211 203 201 204 204 199 198 195 195 197 205 219 221 215 195 181 177 216 258 274 220 213 233 233 238 229 227 246 255
208 221 225 222 222 218 215 210 210 206 201 206 213 211 202 199 199 200 201 207 215 223 229 206 198 200 212 225 244 253 226 217 215 232 244 248 257 265
218 225 227 222 220 217 216 211 203 200 201 198 203 206 205 201 205 204 204 214 209 213 221 227 229 218 205 178 265 272 258 227 221 220 222 240 269 274
222 222 224 225 220 213 207 204 203 202 201 203 205 204 197 193 207 210 204 207 212 218 231 237 218 181 177 216 247 259 265 265 253 260 256 231 217 233
215 217 215 216 219 213 204 205 206 209 200 199 200 204 203 201 207 211 217 219 216 215 220 227 224 210 215 221 240 258 267 269 261 268 273 263 255 259